#timestamp,LO_Frequency,Hit,StdDev 
1659567615.4,286047001.8,N
1659567635.2,286047001.6,N
1659567655.1,286047002.1,N
1659567656.0,286047002.1,N
1659567675.8,286047002.5,N
1659567695.6,286047002.5,N
1659567715.5,286046999.8,N
1659567735.3,286047000.1,N
1659567755.2,286047002.6,N
1659567775.9,286047000.2,N
1659567795.7,286047000.1,N
1659567815.6,286047000.4,N
1659567835.4,286047002.8,N
1659567855.3,286047000.1,N
1659567875.1,286047000.2,N
1659567876.0,286047000.2,N
1659567895.8,286047002.4,N
1659567915.7,286047000.1,N
1659567935.5,286047001.0,N
1659567955.3,286047000.9,N
1659567975.2,286046999.8,N
1659567995.0,286047000.9,N
1659567995.9,286047000.9,N
1659568015.8,286047000.7,N
1659568035.6,286046999.4,N
1659568055.4,286046998.7,N
1659568075.3,286046998.6,N
1659568095.1,286047001.1,N
1659568115.8,286047000.6,N
1659568135.7,286046999.9,N
1659568155.5,286047000.1,N
1659568175.4,286046999.9,N
1659568195.2,286047000.2,N
1659568215.0,286047001.5,N
1659568215.9,286047001.5,N
1659568235.8,286047002.4,N
1659568255.6,286047002.5,N
1659568275.4,286046999.7,N
1659568295.3,286047002.3,N
1659568315.1,286047000.1,N
1659568335.9,286047002.8,N
1659568355.7,286047002.7,N
1659568375.5,286047004.3,Y
1659568395.4,286047002.6,P
1659568415.2,286046999.7,N
1659568435.0,286047000.9,N
1659568435.9,286047000.9,N
1659568455.8,286047000.4,N
1659568475.6,286046998.1,N
1659568495.5,286047000.4,N
1659568515.3,286047000.6,N
1659568535.1,286047000.2,N
1659568555.9,286047000.0,N
1659568575.7,286047000.6,N
1659568595.5,286047002.7,N
1659568615.4,286047002.5,N
1659568635.2,286047000.0,N
1659568655.1,286047002.8,N
1659568656.0,286047002.8,N
1659568675.8,286047002.4,N
1659568695.6,286047002.8,N
1659568715.5,286047000.2,N
1659568735.3,286046998.2,N
1659568755.1,286047000.6,N
1659568775.9,286047001.1,N
1659568795.7,286046998.2,N
1659568815.6,286046998.1,N
1659568835.4,286046998.6,N
1659568855.2,286046998.2,N
1659568875.1,286046998.1,N
1659568876.0,286046998.1,N
1659568895.8,286046998.7,N
1659568915.6,286046999.2,N
1659568935.5,286046996.7,N
1659568955.3,286046997.0,N
1659568975.1,286046996.9,N
1659568995.9,286046996.5,N
1659569015.7,286046999.6,N
1659569035.6,286046998.9,N
1659569055.4,286046998.7,N
1659569075.2,286046997.0,N
1659569095.1,286046996.8,N
1659569096.0,286046996.8,N
1659569115.8,286046999.1,N
1659569135.6,286046996.6,N
1659569155.5,286046998.3,N
1659569175.3,286046998.4,N
1659569195.2,286047000.7,N
1659569215.9,286046999.7,N
1659569235.7,286047000.5,N
1659569255.6,286047000.3,N
1659569275.4,286047002.8,N
1659569295.2,286047002.4,N
1659569315.1,286047000.1,N
1659569316.0,286047000.1,N
1659569335.8,286047000.6,N
1659569355.7,286047000.3,N
1659569375.5,286047000.1,N
1659569395.3,286047002.8,N
1659569415.2,286047000.1,N
1659569435.0,286047000.2,N
1659569435.9,286047000.2,N
1659569455.7,286047000.7,N
1659569475.6,286046999.4,N
1659569495.4,286046998.9,N
1659569515.3,286047000.7,N
1659569535.1,286047000.7,N
1659569536.0,286047000.7,N
1659569555.8,286047001.0,N
1659569575.7,286047000.0,N
1659569595.5,286046999.7,N
1659569615.3,286047002.5,N
1659569635.2,286047002.5,N
1659569655.0,286047001.9,N
1659569655.9,286047001.9,N
1659569675.8,286047004.4,Y
1659569695.6,286047001.8,P
1659569715.4,286047001.7,N
1659569735.3,286047001.3,N
1659569755.1,286047002.2,Y
1659569775.9,286046998.1,P
1659569795.7,286046999.9,N
1659569815.5,286047000.6,N
1659569835.4,286046998.2,N
1659569855.2,286047001.0,N
1659569875.0,286047000.9,N
1659569875.9,286047000.9,N
1659569895.8,286047001.2,N
1659569915.6,286046998.1,N
1659569935.5,286046998.5,N
1659569955.3,286046998.1,N
1659569975.1,286046998.2,N
1659569995.9,286046999.3,N
1659570015.7,286046999.0,N
1659570035.5,286046998.9,N
1659570055.4,286047000.7,N
1659570075.2,286047002.3,N
1659570095.0,286047000.8,N
1659570095.9,286047000.8,N
1659570115.8,286046998.2,N
1659570135.6,286047001.1,N
1659570155.5,286047000.9,N
1659570175.3,286047001.2,N
1659570195.1,286047001.1,N
1659570215.9,286046999.4,N
1659570235.7,286046998.5,N
1659570255.5,286046998.5,N
1659570275.4,286047001.2,N
1659570295.2,286046999.3,N
1659570315.1,286046998.1,N
1659570316.0,286046998.1,N
1659570335.8,286046998.5,N
1659570355.6,286047000.7,N
1659570375.5,286046998.1,N
1659570395.3,286046998.6,N
1659570415.1,286046998.5,N
1659570435.9,286046998.9,N
1659570455.7,286046999.2,N
1659570475.6,286046998.8,N
1659570495.4,286046998.1,N
1659570515.2,286046999.1,N
1659570535.1,286046999.1,N
1659570536.0,286046999.1,N
1659570555.8,286046996.7,N
1659570575.6,286046996.9,N
1659570595.5,286046997.6,N
1659570615.3,286046995.1,Y
1659570635.2,286046996.9,P
1659570655.9,286046996.5,P
1659570675.7,286046998.9,N
1659570695.6,286046998.9,N
1659570715.4,286046999.4,N
1659570735.2,286046999.1,N
1659570755.1,286046997.3,N
1659570756.0,286046997.3,N
1659570775.8,286046996.9,N
1659570795.7,286046996.5,Y
1659570815.5,286047000.2,P
1659570835.3,286047000.0,N
1659570855.2,286047000.7,N
1659570875.0,286046999.9,N
1659570875.9,286046999.9,N
1659570895.8,286047000.4,N
1659570915.6,286047000.6,N
1659570935.4,286046999.8,N
1659570955.3,286046999.8,N
1659570975.1,286047000.4,N
1659570995.8,286046999.9,N
1659571015.7,286046999.9,N
1659571035.5,286046999.9,N
1659571055.4,286047000.4,N
1659571075.2,286047000.7,N
1659571095.0,286046999.0,N
1659571095.9,286046999.0,N
1659571115.8,286046999.1,N
1659571135.6,286046998.7,N
1659571155.4,286046998.9,N
1659571175.3,286046999.1,N
1659571195.1,286046998.8,N
